Tue, 07 Dec 2021 15:06:55 UTC

Information for RPM qdox-0:2.0-3.M9.module_el8.0.0+10+8b25747c.noarch.rpm

ID18359
Nameqdox
Version2.0
Release3.M9.module_el8.0.0+10+8b25747c
Epoch0
Archnoarch
SummaryExtract class/interface/method definitions from sources
DescriptionQDox is a high speed, small footprint parser for extracting class/interface/method definitions from source files complete with JavaDoc @tags. It is designed to be used by active code generators or documentation tools.
Build Time2019-07-15 21:53:13 GMT
Size304711
bd5a4248cedba305d7087958e3ab6a0c
LicenseASL 2.0
Buildrootmodule-javapackages-tools-201801-8000020190628172923-b07bea58-build-7379-1943
Provides
mvn(com.thoughtworks.qdox:qdox) = 2.0.M9
mvn(com.thoughtworks.qdox:qdox:pom:) = 2.0.M9
mvn(qdox:qdox) = 2.0.M9
mvn(qdox:qdox:pom:) = 2.0.M9
osgi(com.thoughtworks.qdox) = 1.6.3
qdox = 0:2.0-3.M9.module_el8.0.0+10+8b25747c
Obsoletes No Obsoletes
Conflicts No Conflicts
Requires
java-headless >= 1:1.5
javapackages-filesystem
rpmlib(CompressedFileNames) <= 3.0.4-1
rpmlib(FileDigests) <= 4.6.0-1
rpmlib(PayloadFilesHavePrefix) <= 4.0-1
rpmlib(PayloadIsXz) <= 5.2-1
Recommends No Recommends
Suggests No Suggests
Supplements No Supplements
Enhances No Enhances
Files
1 through 6 of 6
Name ascending sort Size
/usr/share/doc/qdox0
/usr/share/doc/qdox/LICENSE.txt589
/usr/share/doc/qdox/README.md21068
/usr/share/java/qdox.jar319109
/usr/share/maven-metadata/qdox.xml1903
/usr/share/maven-poms/qdox.pom12999
Component of
Page:
<<< 51 through 100 of 209 >>>
Buildroot descending sort Created State
module-javapackages-tools-201902-8020020200526162847-af5e9d52-build-15900-6957 2020-06-16 05:27:09 expired
module-javapackages-tools-201902-8020020200526162847-af5e9d52-build-15898-6957 2020-06-16 05:26:39 expired
module-javapackages-tools-201902-8020020200526162847-af5e9d52-build-15894-6957 2020-06-16 05:19:33 expired
module-javapackages-tools-201902-8020020200526162847-af5e9d52-build-15892-6957 2020-06-16 05:17:55 expired
module-javapackages-tools-201902-8020020200526162847-af5e9d52-build-15889-6957 2020-06-16 05:17:16 expired
module-javapackages-tools-201902-8020020200526162847-af5e9d52-build-15888-6957 2020-06-16 05:16:48 expired
module-javapackages-tools-201902-8020020200526162847-af5e9d52-build-15884-6957 2020-06-16 05:08:35 expired
module-javapackages-tools-201902-8020020200526162847-af5e9d52-build-15883-6957 2020-06-16 05:07:46 expired
module-javapackages-tools-201902-8020020200526162847-af5e9d52-build-15882-6957 2020-06-16 05:07:16 expired
module-javapackages-tools-201902-8020020200526162847-af5e9d52-build-15880-6957 2020-06-16 05:06:51 expired
module-javapackages-tools-201902-8020020200526162847-af5e9d52-build-15876-6957 2020-06-16 04:58:34 expired
module-javapackages-tools-201902-8020020200526162847-af5e9d52-build-15875-6957 2020-06-16 04:58:05 expired
module-javapackages-tools-201902-8020020200526162847-af5e9d52-build-15874-6957 2020-06-16 04:57:33 expired
module-javapackages-tools-201902-8020020200526162847-af5e9d52-build-15873-6957 2020-06-16 04:57:00 expired
module-javapackages-tools-201902-8020020200526162847-af5e9d52-build-15866-6957 2020-06-16 04:48:13 expired
module-javapackages-tools-201902-8020020200526162847-af5e9d52-build-15864-6957 2020-06-16 04:46:59 expired
module-javapackages-tools-201902-8020020200526162847-af5e9d52-build-15862-6957 2020-06-16 04:46:24 expired
module-javapackages-tools-201902-8020020200526162847-af5e9d52-build-15861-6957 2020-06-16 04:46:22 expired
module-javapackages-tools-201902-8020020200526162847-af5e9d52-build-15856-6957 2020-06-16 04:37:35 expired
module-javapackages-tools-201902-8020020200526162847-af5e9d52-build-15855-6957 2020-06-16 04:37:01 expired
module-javapackages-tools-201902-8020020200526162847-af5e9d52-build-15854-6957 2020-06-16 04:36:28 expired
module-javapackages-tools-201902-8020020200526162847-af5e9d52-build-15850-6957 2020-06-16 04:28:10 expired
module-javapackages-tools-201902-8020020200526162847-af5e9d52-build-15849-6957 2020-06-16 04:27:34 expired
module-javapackages-tools-201902-8020020200526162847-af5e9d52-build-15848-6957 2020-06-16 04:27:10 expired
module-javapackages-tools-201902-8020020200526162847-af5e9d52-build-15846-6957 2020-06-16 04:26:13 expired
module-javapackages-tools-201902-8020020200526162847-af5e9d52-build-15842-6957 2020-06-16 04:18:10 expired
module-javapackages-tools-201902-8020020200526162847-af5e9d52-build-15841-6957 2020-06-16 04:17:38 expired
module-javapackages-tools-201902-8020020200526162847-af5e9d52-build-15840-6957 2020-06-16 04:16:53 expired
module-javapackages-tools-201902-8020020200526162847-af5e9d52-build-15832-6957 2020-06-16 04:07:37 expired
module-javapackages-tools-201902-8020020200526162847-af5e9d52-build-15830-6957 2020-06-16 04:07:04 expired
module-javapackages-tools-201902-8020020200526162847-af5e9d52-build-15824-6957 2020-06-16 03:58:37 expired
module-javapackages-tools-201902-8020020200526162847-af5e9d52-build-15823-6957 2020-06-16 03:58:05 expired
module-javapackages-tools-201902-8020020200526162847-af5e9d52-build-15821-6957 2020-06-16 03:57:01 expired
module-javapackages-tools-201902-8020020200526162847-af5e9d52-build-15818-6957 2020-06-16 03:56:17 expired
module-javapackages-tools-201902-8020020200526162847-af5e9d52-build-15814-6957 2020-06-16 03:48:55 expired
module-javapackages-tools-201902-8020020200526162847-af5e9d52-build-15813-6957 2020-06-16 03:47:45 expired
module-javapackages-tools-201902-8020020200526162847-af5e9d52-build-15811-6957 2020-06-16 03:47:03 expired
module-javapackages-tools-201902-8020020200526162847-af5e9d52-build-15809-6957 2020-06-16 03:46:21 expired
module-javapackages-tools-201902-8020020200526162847-af5e9d52-build-15806-6957 2020-06-16 03:37:53 expired
module-javapackages-tools-201902-8020020200526162847-af5e9d52-build-15802-6957 2020-06-16 03:36:21 expired
module-javapackages-tools-201902-8020020200526162847-af5e9d52-build-15800-6957 2020-06-16 03:35:49 expired
module-javapackages-tools-201902-8020020200526162847-af5e9d52-build-15796-6957 2020-06-16 03:28:56 expired
module-javapackages-tools-201902-8020020200526162847-af5e9d52-build-15795-6957 2020-06-16 03:28:20 expired
module-javapackages-tools-201902-8020020200526162847-af5e9d52-build-15793-6957 2020-06-16 03:27:14 expired
module-javapackages-tools-201902-8020020200526162847-af5e9d52-build-15792-6957 2020-06-16 03:26:45 expired
module-javapackages-tools-201902-8020020200526162847-af5e9d52-build-15790-6957 2020-06-16 03:25:47 expired
module-javapackages-tools-201902-8020020200526162847-af5e9d52-build-15785-6957 2020-06-16 03:17:09 expired
module-javapackages-tools-201902-8020020200526162847-af5e9d52-build-15784-6957 2020-06-16 03:16:50 expired
module-javapackages-tools-201902-8020020200526162847-af5e9d52-build-15780-6957 2020-06-16 03:15:47 expired
module-javapackages-tools-201902-8020020200526162847-af5e9d52-build-15776-6957 2020-06-16 03:07:43 expired